This is the latest recevied weather packets stored in our database for station/object OE6JUE. If no packets are shown the sender has not sent any weather packets the latest 10 day(s).
| Time | Temp. | Humidity | Pressure | Rain* | Wind** | Luminosity | Snow |
|---|---|---|---|---|---|---|---|
| 1777732006 | 25.56° C | 22% | 1022.2 hPa | 0 mm | - | - | - |
| 1777731706 | 25° C | 21% | 1022.2 hPa | 0 mm | - | - | - |
| 1777731406 | 26.11° C | 21% | 1022.2 hPa | 0 mm | - | - | - |
| 1777731106 | 25.56° C | 21% | 1022.2 hPa | 0 mm | - | - | - |
| 1777730806 | 26.11° C | 21% | 1022.2 hPa | 0 mm | - | - | - |
| 1777730506 | 26.11° C | 23% | 1022.4 hPa | - | - | - | - |
| 1777730206 | 25.56° C | 21% | 1022.5 hPa | 0 mm | - | - | - |
| 1777729906 | 25.56° C | 22% | 1022.5 hPa | 0 mm | - | - | - |
| 1777729606 | 25.56° C | 22% | 1022.5 hPa | 0 mm | - | - | - |
| 1777729306 | 25.56° C | 22% | 1022.5 hPa | 0 mm | - | - | - |
| 1777729006 | 26.11° C | 23% | 1022.6 hPa | 0 mm | - | - | - |
| 1777728706 | 26.11° C | 21% | 1022.7 hPa | 0 mm | - | - | - |
| 1777728406 | 25.56° C | 21% | 1022.7 hPa | 0 mm | - | - | - |
| 1777728106 | 26.11° C | 24% | 1022.8 hPa | 0 mm | - | - | - |
| 1777727806 | 25.56° C | 22% | 1022.8 hPa | 0 mm | - | - | - |
| 1777727506 | 25.56° C | 22% | 1022.8 hPa | 0 mm | - | - | - |
| 1777727206 | 25.56° C | 22% | 1022.9 hPa | 0 mm | - | - | - |
| 1777726906 | 25.56° C | 22% | 1023 hPa | - | - | - | - |
| 1777726605 | 25° C | 23% | 1023 hPa | 0 mm | - | - | - |
| 1777726306 | 24.44° C | 23% | 1023 hPa | 0 mm | - | - | - |
| 1777726006 | 25° C | 23% | 1023.1 hPa | 0 mm | - | - | - |
| 1777725706 | 24.44° C | 23% | 1023.1 hPa | 0 mm | - | - | - |
| 1777725405 | 24.44° C | 23% | 1023.2 hPa | 0 mm | - | - | - |
| 1777725105 | 24.44° C | 23% | 1023.1 hPa | 0 mm | - | - | - |
| 1777724806 | 23.89° C | 23% | 1023.3 hPa | 0 mm | - | - | - |
* Rain latest hour (hover to see other rain measurements)
** Current wind speed in m/s (hover to see current wind gust speed)